Location: Catstown
(52.4386°N, 7.2633°W)
Time: 03:30:05
(UTC+00:00)

Iridium 4 Rocket - Pass Details

Date: 18 September 2020
Orbit: 585 x 904 km, 86.9° (Epoch: 19 October)

Event Time Altitude Azimuth Distance (km) Brightness Sun altitude
Rises 19:21:50 0° 185° (S) 3,085 6.6 -7.7°
Reaches altitude 10° 19:24:02 10° 186° (S) 2,218 5.8 -8.1°
Maximum altitude 19:29:00 82° 274° (W) 792 3.7 -8.8°
Drops below altitude 10° 19:34:31 10° 2° (N) 2,444 6.3 -9.6°
Sets 19:37:01 0° 4° (N) 3,425 7.0 -10.0°
